�������l�o���
Date,Time,MP-1(��Sv/h),MP-2(��Sv/h),MP-3(��Sv/h),MP-4(��Sv/h),MP-5(��Sv/h),MP-6(��Sv/h),MP-7(��Sv/h),MP-8(��Sv/h),����,����(m/s),���J
2021/07/30,00:00,0.586,0.864,0.555,1.058,0.740,0.359,0.626,0.586,��,5.4,��
2021/07/30,00:10,0.587,0.866,0.552,1.060,0.740,0.360,0.625,0.587,��,5.8,��
2021/07/30,00:20,0.587,0.867,0.555,1.060,0.741,0.360,0.626,0.587,��,5.3,��
2021/07/30,00:30,0.586,0.866,0.554,1.058,0.740,0.360,0.626,0.586,��,4.8,��
2021/07/30,00:40,0.586,0.865,0.555,1.061,0.740,0.360,0.625,0.586,��,6.1,��
2021/07/30,00:50,0.586,0.865,0.554,1.059,0.741,0.360,0.625,0.586,��,6.3,��
2021/07/30,01:00,0.587,0.866,0.555,1.060,0.740,0.359,0.624,0.588,��,4.9,��
2021/07/30,01:10,0.587,0.867,0.555,1.061,0.742,0.361,0.627,0.588,��,5.5,��
2021/07/30,01:20,0.586,0.868,0.556,1.061,0.740,0.360,0.625,0.587,��,4.8,��
2021/07/30,01:30,0.588,0.869,0.554,1.063,0.741,0.360,0.626,0.588,��,4.9,��
2021/07/30,01:40,0.587,0.866,0.556,1.060,0.742,0.360,0.626,0.586,��,5.8,��
2021/07/30,01:50,0.587,0.865,0.554,1.063,0.741,0.361,0.625,0.585,��,5.7,��
2021/07/30,02:00,0.587,0.868,0.555,1.060,0.742,0.360,0.625,0.587,��,4.6,��
2021/07/30,02:10,0.588,0.866,0.554,1.059,0.740,0.361,0.626,0.587,��,4.3,��
2021/07/30,02:20,0.586,0.869,0.555,1.061,0.741,0.361,0.625,0.587,��,4.5,��
2021/07/30,02:30,0.587,0.868,0.554,1.060,0.743,0.360,0.626,0.587,��,4.0,��
2021/07/30,02:40,0.585,0.868,0.554,1.059,0.741,0.361,0.624,0.586,��,4.5,��
2021/07/30,02:50,0.588,0.869,0.556,1.060,0.744,0.360,0.624,0.586,��,3.6,��
2021/07/30,03:00,0.587,0.869,0.555,1.061,0.741,0.360,0.625,0.587,��,4.0,��
2021/07/30,03:10,0.587,0.869,0.554,1.064,0.743,0.361,0.625,0.586,��,3.6,��
2021/07/30,03:20,0.588,0.869,0.556,1.062,0.742,0.360,0.626,0.589,��쐼,2.0,��
2021/07/30,03:30,0.588,0.868,0.555,1.063,0.742,0.360,0.625,0.587,��,2.2,��
2021/07/30,03:40,0.587,0.870,0.555,1.063,0.741,0.361,0.626,0.587,��쐼,1.5,��
2021/07/30,03:50,0.587,0.870,0.556,1.062,0.742,0.362,0.625,0.587,��쐼,1.7,��
2021/07/30,04:00,0.590,0.872,0.556,1.063,0.744,0.363,0.626,0.587,��쐼,2.3,��
2021/07/30,04:10,0.587,0.870,0.557,1.061,0.743,0.362,0.627,0.587,��쐼,2.2,��
2021/07/30,04:20,0.588,0.870,0.555,1.062,0.744,0.362,0.627,0.588,��쐼,2.2,��
2021/07/30,04:30,0.588,0.870,0.556,1.062,0.744,0.364,0.624,0.588,��,2.0,��
2021/07/30,04:40,0.589,0.871,0.556,1.063,0.744,0.362,0.624,0.588,��,2.2,��
2021/07/30,04:50,0.589,0.869,0.557,1.063,0.743,0.360,0.626,0.588,��,3.0,��
2021/07/30,05:00,0.589,0.872,0.558,1.064,0.744,0.361,0.625,0.588,��,2.0,��
2021/07/30,05:10,0.589,0.870,0.554,1.063,0.744,0.361,0.626,0.586,��쓌,2.0,��
2021/07/30,05:20,0.589,0.871,0.556,1.063,0.745,0.362,0.626,0.587,��쓌,1.2,��
2021/07/30,05:30,0.590,0.869,0.556,1.065,0.745,0.362,0.626,0.589,��쓌,1.4,��
2021/07/30,05:40,0.588,0.871,0.557,1.062,0.745,0.361,0.625,0.587,��쓌,1.4,��
2021/07/30,05:50,0.588,0.870,0.556,1.062,0.745,0.363,0.626,0.587,��,2.2,��
2021/07/30,06:00,0.590,0.870,0.557,1.063,0.744,0.362,0.626,0.587,��,3.1,��
2021/07/30,06:10,0.591,0.872,0.557,1.063,0.747,0.362,0.625,0.588,��,3.0,��
2021/07/30,06:20,0.590,0.870,0.555,1.063,0.746,0.363,0.627,0.589,��,2.8,��
2021/07/30,06:30,0.590,0.871,0.557,1.062,0.744,0.361,0.625,0.587,��,2.6,��
2021/07/30,06:40,0.591,0.871,0.556,1.065,0.746,0.361,0.627,0.588,��쐼,2.8,��
2021/07/30,06:50,0.591,0.871,0.557,1.063,0.744,0.360,0.626,0.587,��,3.4,��
2021/07/30,07:00,0.590,0.870,0.557,1.064,0.745,0.361,0.626,0.587,��,3.2,��
2021/07/30,07:10,0.590,0.871,0.557,1.064,0.743,0.361,0.626,0.588,��,4.0,��
2021/07/30,07:20,0.588,0.871,0.556,1.063,0.744,0.361,0.627,0.588,��,4.1,��
2021/07/30,07:30,0.590,0.872,0.556,1.064,0.744,0.361,0.626,0.587,��,3.5,��
2021/07/30,07:40,0.588,0.870,0.557,1.063,0.745,0.360,0.625,0.587,��,3.4,��
2021/07/30,07:50,0.591,0.872,0.555,1.064,0.743,0.361,0.625,0.587,��쓌,3.3,��
2021/07/30,08:00,0.589,0.873,0.555,1.062,0.746,0.360,0.626,0.585,��쓌,4.9,��
2021/07/30,08:10,0.587,0.872,0.557,1.062,0.745,0.361,0.626,0.585,��쓌,4.1,��
2021/07/30,08:20,0.588,0.872,0.557,1.065,0.747,0.361,0.627,0.584,��쓌,4.4,��
2021/07/30,08:30,0.589,0.870,0.555,1.064,0.746,0.361,0.625,0.586,��쓌,4.0,��
2021/07/30,08:40,0.588,0.871,0.556,1.065,0.746,0.362,0.624,0.584,��쓌,4.0,��
2021/07/30,08:50,0.590,0.871,0.555,1.066,0.745,0.362,0.625,0.587,�쓌,4.4,��
2021/07/30,09:00,0.589,0.870,0.557,1.064,0.747,0.362,0.626,0.585,��쓌,4.2,��
2021/07/30,09:10,0.591,0.871,0.555,1.065,0.745,0.359,0.626,0.586,��쓌,6.3,�L
2021/07/30,09:20,0.589,0.868,0.554,1.064,0.746,0.360,0.628,0.584,��쓌,6.2,��
2021/07/30,09:30,0.591,0.871,0.555,1.066,0.745,0.361,0.627,0.586,��쓌,6.9,��
2021/07/30,09:40,0.591,0.872,0.557,1.065,0.745,0.361,0.627,0.586,��쓌,7.1,��
2021/07/30,09:50,0.590,0.870,0.557,1.064,0.746,0.361,0.627,0.586,��쓌,6.0,��
2021/07/30,10:00,0.593,0.872,0.557,1.066,0.746,0.361,0.627,0.587,��쓌,6.5,��
2021/07/30,10:10,0.592,0.874,0.557,1.066,0.748,0.361,0.627,0.585,��쓌,6.1,��
2021/07/30,10:20,0.594,0.871,0.558,1.066,0.746,0.361,0.627,0.587,��쓌,6.5,��
2021/07/30,10:30,0.590,0.874,0.559,1.068,0.750,0.363,0.627,0.587,��쓌,6.6,��
2021/07/30,10:40,0.593,0.876,0.558,1.065,0.747,0.362,0.627,0.588,��쓌,6.1,��
2021/07/30,10:50,0.592,0.873,0.559,1.066,0.750,0.364,0.629,0.587,��쓌,6.4,��
2021/07/30,11:00,0.594,0.874,0.559,1.066,0.751,0.363,0.628,0.587,��쓌,7.2,��
2021/07/30,11:10,0.593,0.875,0.560,1.067,0.751,0.362,0.628,0.588,��쓌,7.0,��
2021/07/30,11:20,0.593,0.877,0.560,1.065,0.750,0.363,0.629,0.587,��쓌,7.8,��
2021/07/30,11:30,0.595,0.877,0.561,1.066,0.751,0.362,0.629,0.588,��쓌,7.1,��
2021/07/30,11:40,0.594,0.876,0.559,1.066,0.750,0.362,0.628,0.587,��쓌,8.8,��
2021/07/30,11:50,0.594,0.877,0.560,1.067,0.754,0.362,0.629,0.587,��쓌,6.5,��
2021/07/30,12:00,0.593,0.880,0.562,1.067,0.755,0.364,0.629,0.588,��쓌,4.6,��
2021/07/30,12:10,0.595,0.878,0.560,1.068,0.752,0.363,0.627,0.588,��쓌,6.2,��
2021/07/30,12:20,0.595,0.881,0.560,1.068,0.754,0.365,0.630,0.589,��쓌,8.3,��
2021/07/30,12:30,0.596,0.879,0.560,1.067,0.754,0.364,0.628,0.588,��쓌,7.1,��
2021/07/30,12:40,0.596,0.882,0.560,1.068,0.755,0.363,0.630,0.590,��쓌,8.0,��
2021/07/30,12:50,0.597,0.883,0.563,1.068,0.754,0.363,0.628,0.589,��쓌,7.2,��
2021/07/30,13:00,0.595,0.878,0.561,1.068,0.755,0.365,0.629,0.589,��쓌,7.3,��
2021/07/30,13:10,0.596,0.880,0.561,1.069,0.755,0.363,0.631,0.589,��쓌,5.1,��
2021/07/30,13:20,0.596,0.880,0.563,1.070,0.758,0.364,0.630,0.589,��쓌,6.0,��
2021/07/30,13:30,0.595,0.880,0.562,1.068,0.756,0.365,0.630,0.589,��쓌,5.9,��
2021/07/30,13:40,0.597,0.883,0.563,1.070,0.757,0.365,0.630,0.590,��쓌,6.0,��
2021/07/30,13:50,0.596,0.882,0.562,1.070,0.760,0.364,0.628,0.589,��쓌,5.1,��
2021/07/30,14:00,0.598,0.880,0.563,1.068,0.756,0.365,0.630,0.589,�쓌,5.0,��
2021/07/30,14:10,0.595,0.881,0.563,1.072,0.757,0.364,0.630,0.589,��쓌,6.8,��
2021/07/30,14:20,0.598,0.883,0.563,1.070,0.759,0.365,0.630,0.591,��쓌,5.0,��
2021/07/30,14:30,0.598,0.882,0.563,1.071,0.757,0.366,0.631,0.590,�쓌,6.5,��
2021/07/30,14:40,0.597,0.882,0.562,1.073,0.758,0.365,0.630,0.591,�쓌,5.9,��
2021/07/30,14:50,0.599,0.884,0.562,1.072,0.758,0.364,0.631,0.590,�쓌,7.0,��
2021/07/30,15:00,0.597,0.885,0.564,1.072,0.759,0.365,0.630,0.591,��쓌,6.3,��
2021/07/30,15:10,0.597,0.887,0.562,1.072,0.757,0.364,0.632,0.591,�쓌,6.7,��
2021/07/30,15:20,0.597,0.884,0.562,1.071,0.759,0.364,0.631,0.592,�쓌,6.0,��
2021/07/30,15:30,0.598,0.885,0.565,1.073,0.760,0.365,0.631,0.589,��쓌,6.0,��
2021/07/30,15:40,0.598,0.886,0.563,1.073,0.760,0.364,0.633,0.589,��쓌,6.5,��
2021/07/30,15:50,0.598,0.884,0.563,1.073,0.759,0.364,0.634,0.591,��쓌,5.4,��
2021/07/30,16:00,0.597,0.884,0.564,1.074,0.759,0.364,0.632,0.589,��쓌,4.3,��
2021/07/30,16:10,0.599,0.887,0.562,1.072,0.759,0.365,0.632,0.588,��쓌,3.2,��
2021/07/30,16:20,0.597,0.886,0.564,1.071,0.760,0.365,0.632,0.589,��쓌,3.7,��
2021/07/30,16:30,0.599,0.885,0.563,1.074,0.759,0.364,0.632,0.589,��쓌,1.5,��
2021/07/30,16:40,0.597,0.885,0.562,1.074,0.759,0.363,0.630,0.590,��,1.5,��
2021/07/30,16:50,0.599,0.885,0.564,1.074,0.759,0.364,0.631,0.591,��쓌,3.3,��
2021/07/30,17:00,0.600,0.884,0.564,1.074,0.760,0.364,0.630,0.591,��쓌,4.9,��
2021/07/30,17:10,0.599,0.888,0.563,1.074,0.760,0.364,0.631,0.589,��쓌,4.3,��
2021/07/30,17:20,0.599,0.885,0.563,1.075,0.759,0.364,0.631,0.589,��쓌,4.4,��
2021/07/30,17:30,0.597,0.886,0.562,1.076,0.761,0.364,0.630,0.588,��쓌,3.8,��
2021/07/30,17:40,0.597,0.884,0.564,1.076,0.757,0.364,0.632,0.589,��쓌,3.2,��
2021/07/30,17:50,0.597,0.885,0.562,1.075,0.759,0.365,0.630,0.589,��쓌,4.0,��
2021/07/30,18:00,0.599,0.884,0.563,1.075,0.762,0.365,0.630,0.589,��쓌,3.5,��
2021/07/30,18:10,0.598,0.885,0.563,1.075,0.761,0.363,0.632,0.589,��쓌,1.7,��
2021/07/30,18:20,0.598,0.884,0.562,1.075,0.762,0.365,0.631,0.589,��,2.8,��
2021/07/30,18:30,0.598,0.886,0.563,1.075,0.763,0.364,0.631,0.590,��,2.5,��
2021/07/30,18:40,0.598,0.888,0.566,1.075,0.761,0.364,0.631,0.590,��쓌,1.2,��
2021/07/30,18:50,0.597,0.887,0.563,1.075,0.762,0.365,0.630,0.591,��쓌,1.5,��
2021/07/30,19:00,0.598,0.889,0.565,1.076,0.761,0.366,0.631,0.590,��,2.3,��
2021/07/30,19:10,0.595,0.888,0.564,1.076,0.759,0.366,0.630,0.590,��쓌,2.2,��
2021/07/30,19:20,0.598,0.888,0.564,1.076,0.762,0.366,0.630,0.588,��,2.6,��
2021/07/30,19:30,0.599,0.890,0.565,1.076,0.761,0.366,0.630,0.589,��,2.5,��
2021/07/30,19:40,0.599,0.888,0.564,1.078,0.764,0.366,0.631,0.589,��,3.0,��
2021/07/30,19:50,0.599,0.887,0.565,1.076,0.763,0.364,0.631,0.590,��,2.6,��
2021/07/30,20:00,0.599,0.889,0.564,1.078,0.762,0.364,0.630,0.589,��쓌,2.3,��
2021/07/30,20:10,0.598,0.888,0.566,1.078,0.761,0.365,0.629,0.589,��,2.3,��
2021/07/30,20:20,0.600,0.889,0.566,1.079,0.761,0.366,0.630,0.590,��,2.0,��
2021/07/30,20:30,0.598,0.887,0.566,1.077,0.762,0.366,0.630,0.591,��쐼,1.1,��
2021/07/30,20:40,0.599,0.888,0.564,1.078,0.761,0.366,0.630,0.588,��,1.4,��
2021/07/30,20:50,0.599,0.889,0.564,1.077,0.761,0.365,0.632,0.590,-,CALM,��
2021/07/30,21:00,0.599,0.887,0.565,1.077,0.762,0.365,0.631,0.591,��쓌,1.1,��
2021/07/30,21:10,0.599,0.889,0.564,1.078,0.764,0.366,0.631,0.589,��쓌,0.6,��
2021/07/30,21:20,0.598,0.889,0.566,1.077,0.762,0.365,0.631,0.589,-,CALM,��
2021/07/30,21:30,0.598,0.889,0.566,1.079,0.761,0.367,0.630,0.589,��쐼,0.8,��
2021/07/30,21:40,0.598,0.889,0.566,1.080,0.761,0.366,0.631,0.590,��쓌,1.5,��
2021/07/30,21:50,0.598,0.888,0.566,1.077,0.762,0.366,0.631,0.589,��,1.1,��
2021/07/30,22:00,0.597,0.889,0.566,1.078,0.763,0.366,0.631,0.590,��쓌,0.8,��
2021/07/30,22:10,0.599,0.887,0.565,1.078,0.761,0.364,0.630,0.590,���쓌,0.9,��
2021/07/30,22:20,0.598,0.889,0.563,1.078,0.762,0.366,0.631,0.590,���쓌,0.9,��
2021/07/30,22:30,0.598,0.889,0.564,1.078,0.763,0.365,0.632,0.590,���쓌,0.8,��
2021/07/30,22:40,0.598,0.889,0.565,1.078,0.762,0.365,0.631,0.590,-,CALM,��
2021/07/30,22:50,0.600,0.890,0.564,1.079,0.763,0.366,0.631,0.591,-,CALM,��
2021/07/30,23:00,0.599,0.888,0.566,1.079,0.763,0.368,0.632,0.590,�k��,0.6,��
2021/07/30,23:10,0.599,0.889,0.567,1.080,0.763,0.365,0.633,0.589,���k��,0.8,��
2021/07/30,23:20,0.599,0.890,0.566,1.080,0.764,0.367,0.631,0.590,���k��,0.9,��
2021/07/30,23:30,0.599,0.888,0.567,1.079,0.763,0.365,0.632,0.590,�k��,0.6,��
2021/07/30,23:40,0.599,0.888,0.566,1.080,0.762,0.364,0.631,0.591,�k��,0.6,��
2021/07/30,23:50,0.599,0.890,0.566,1.080,0.762,0.365,0.631,0.592,�k�k��,0.8,��
